Wind_Speed
16 16 16 16 16 16 17 17 16 17 18 18 19 20 21 21 21 21 21 21 21 21 21 22 22 22 22 23 22 22 22 21 21 21 21 20 19 18 18 17 17 16 15 15 15 15 14 14 13 12 12 12 13 15 17 17 18 17 19 20 20 19 20 21 22 23 23 22 22 21 19 18 17 17 16 15 16 15 15 16 18 17 16 16 16
19 17 17 17 17 17 17 18 17 17 18 18 19 19 21 20 21 20 20 21 21 21 21 22 22 22 22 22 22 21 21 20 20 20 20 20 18 17 16 16 16 15 14 14 14 15 15 14 14 13 13 13 13 14 16 18 18 18 19 19 19 19 19 20 21 21 21 21 21 20 19 18 17 17 16 16 15 15 15 15 17 17 16 15 15
20 18 17 17 17 17 17 18 17 18 18 18 18 19 20 20 20 20 20 21 21 21 21 22 22 22 22 21 20 19 18 18 19 19 19 18 18 17 16 16 16 15 14 14 14 15 15 15 14 14 14 14 14 14 15 18 17 18 19 18 17 19 19 19 20 19 18 18 20 20 19 18 17 16 16 16 15 14 14 14 14 15 15 14 15
20 19 16 16 16 17 18 18 18 17 17 18 18 18 19 20 20 19 20 21 21 21 21 21 22 22 22 21 19 18 17 17 18 18 18 17 17 16 16 16 16 15 14 13 14 15 16 15 14 15 15 15 14 14 15 16 17 17 18 17 16 19 19 19 19 18 17 17 19 19 19 19 17 15 16 15 14 14 13 13 13 13 13 13 13
20 18 16 17 16 17 18 18 18 18 18 17 18 18 19 19 20 19 19 20 20 20 20 21 21 22 22 20 18 17 17 17 18 18 17 17 17 16 16 15 15 15 14 13 14 15 16 15 15 15 15 15 15 15 14 14 16 16 17 16 15 18 19 19 18 18 17 17 18 19 19 19 17 15 15 15 14 14 13 13 12 12 12 12 12
20 18 17 17 15 17 18 18 18 18 18 17 17 18 18 18 19 19 19 19 18 18 18 19 19 20 20 19 18 17 16 15 16 17 16 16 16 16 16 15 14 14 14 13 14 15 15 15 15 15 15 15 15 15 14 14 15 15 15 14 15 17 18 17 17 16 15 17 19 19 18 18 18 16 14 15 14 13 12 12 11 11 12 12 12
19 16 16 16 15 16 17 18 17 18 18 17 17 17 18 18 18 18 18 18 17 17 17 17 17 17 17 17 17 17 16 15 15 15 15 15 15 15 15 15 14 14 13 13 14 14 15 15 15 15 15 15 15 15 14 14 15 14 14 15 15 16 15 14 14 14 14 17 18 17 17 17 17 15 14 14 13 13 12 11 11 11 11 11 12
17 14 13 14 14 15 16 17 16 17 18 17 17 17 18 18 18 18 17 17 17 16 17 16 16 15 15 16 16 16 16 15 14 15 15 15 15 15 15 14 13 13 14 13 13 14 15 15 15 15 15 16 16 15 15 15 15 15 16 16 15 14 13 12 12 12 14 17 17 16 16 15 15 15 14 13 13 12 11 11 10 10 10 11 11
16 13 12 12 12 14 15 15 15 16 17 17 16 16 17 17 17 17 17 17 17 16 16 16 15 14 14 14 14 14 14 14 14 15 16 16 16 15 14 13 12 13 15 14 13 14 14 15 16 16 16 16 16 16 16 16 16 16 16 15 14 13 12 11 11 11 14 16 16 16 15 14 14 14 13 12 12 12 11 10 10 10 10 10 10
15 14 12 11 11 12 14 14 14 15 16 16 16 16 16 17 17 17 16 16 17 16 16 16 15 14 14 12 12 13 13 13 13 14 16 16 16 16 14 13 12 14 16 14 13 14 14 15 16 16 16 17 16 16 17 16 17 16 15 14 13 13 12 11 11 11 13 14 15 15 14 14 13 13 11 11 11 11 10 9 9 9 10 10 11
14 14 12 11 11 12 13 13 13 14 15 15 15 16 15 16 16 17 16 16 16 16 15 15 14 14 13 12 11 11 12 12 12 13 14 15 16 15 14 12 12 14 16 13 13 14 14 16 16 16 16 16 16 16 17 17 16 14 13 12 11 11 11 11 11 12 13 13 14 15 13 13 13 11 9 9 10 11 10 10 9 9 10 10 10
15 14 13 12 11 11 12 11 12 13 14 14 14 15 15 15 16 16 16 15 15 15 14 14 14 13 12 11 11 11 10 10 10 13 14 14 14 13 13 12 12 14 16 13 13 15 15 16 15 16 16 17 17 17 16 15 13 11 9 8 9 9 10 10 11 12 12 12 13 13 12 11 10 9 8 8 9 10 10 10 9 9 10 9 10
16 14 13 12 11 11 12 11 12 12 13 13 13 13 14 15 16 16 16 16 15 15 14 14 13 13 12 12 12 11 11 9 9 11 13 14 13 13 13 12 12 14 16 14 13 14 15 15 14 16 18 17 16 15 14 11 9 7 6 7 8 8 10 11 10 11 11 11 12 11 11 10 9 9 7 7 9 9 9 9 9 9 9 9 9
16 13 12 12 11 11 11 11 11 12 12 12 12 12 12 14 16 16 17 16 16 15 15 14 13 12 12 12 12 12 11 10 10 10 10 13 13 13 14 13 12 13 15 15 13 13 14 14 15 16 17 17 15 13 11 10 8 5 4 6 8 9 11 11 10 9 10 10 11 10 10 10 9 8 7 8 9 8 8 8 8 9 9 9 9
16 14 13 13 12 10 10 11 10 11 11 10 11 11 12 13 14 14 16 17 17 16 15 14 13 12 12 13 13 12 12 11 10 9 9 10 11 12 13 13 13 12 13 14 13 12 13 15 15 15 15 15 15 13 11 10 7 4 3 4 8 11 10 10 9 8 9 10 10 10 11 10 7 7 8 9 9 8 8 7 7 8 8 8 9
15 14 14 14 13 11 10 9 9 10 10 10 10 10 11 12 12 12 15 17 17 16 16 14 12 11 10 11 12 12 12 11 10 9 8 8 9 11 12 12 12 11 11 13 14 12 12 14 14 15 15 14 14 13 11 9 6 5 3 3 7 11 10 8 8 8 8 9 9 9 11 9 8 8 7 8 8 7 7 7 7 7 8 8 8
14 14 15 14 13 12 11 10 9 10 10 10 10 10 11 11 11 11 14 17 18 18 16 14 12 11 10 10 12 13 12 11 10 9 8 8 8 9 10 11 11 10 9 10 12 12 11 12 13 13 14 14 14 13 11 9 7 6 5 4 5 10 11 8 7 7 8 8 8 8 9 10 9 8 8 8 7 7 6 5 6 6 7 7 8
14 14 14 13 12 12 12 11 10 11 11 10 11 11 11 11 11 11 13 16 18 18 17 15 13 12 12 11 12 12 11 10 10 9 8 8 8 8 8 9 9 9 8 8 10 13 12 11 12 12 13 14 14 13 11 10 9 7 5 4 4 6 10 9 6 6 7 7 7 7 8 9 9 9 8 7 6 7 6 5 6 5 6 7 7
14 13 12 12 12 11 11 11 10 10 10 10 10 10 10 10 10 11 12 14 17 18 18 17 13 10 11 11 12 12 10 10 10 9 8 7 7 8 8 7 8 8 7 7 8 12 13 12 11 11 12 13 13 13 12 11 10 7 6 5 4 5 8 9 7 6 7 7 7 7 7 8 9 8 7 5 6 7 6 5 5 5 5 6 6
13 13 12 12 12 11 10 10 9 8 8 9 10 9 9 9 10 11 12 13 15 15 16 15 12 11 10 10 11 11 9 10 10 8 7 7 7 8 9 9 8 8 7 7 8 11 14 13 11 11 11 11 12 12 12 12 10 7 5 5 5 6 7 8 8 6 6 7 7 7 7 8 8 7 6 6 7 6 5 5 5 5 5 5 6
14 13 12 12 12 11 10 9 8 8 7 8 9 9 9 9 10 10 10 11 13 13 14 14 13 12 11 10 10 9 9 11 11 8 7 8 9 9 10 10 9 8 7 8 8 10 14 14 11 11 11 10 9 11 12 12 11 7 5 6 6 7 7 8 9 7 6 6 6 7 7 7 7 6 6 7 6 5 4 5 5 5 4 5 6
15 14 12 11 11 10 9 7 7 8 8 8 9 9 9 9 10 10 10 10 11 12 13 14 13 12 12 11 10 8 9 12 11 9 9 9 11 10 11 11 9 7 7 8 8 9 12 14 13 11 11 10 9 9 11 12 11 7 5 7 7 7 9 9 8 7 6 6 6 6 7 7 6 6 6 6 5 4 4 5 5 4 4 5 6
15 14 13 11 10 10 7 6 6 7 8 8 9 9 9 9 9 9 9 10 11 11 12 13 13 13 13 12 10 8 8 9 10 10 13 14 13 11 11 11 8 5 6 7 7 9 11 13 14 12 11 11 9 8 9 10 11 8 5 7 8 8 10 10 8 7 6 5 6 6 6 6 6 5 5 5 4 3 4 5 4 4 3 5 6
15 14 13 12 11 10 8 6 6 6 7 7 7 7 8 8 7 8 8 9 10 10 12 12 13 14 13 12 10 9 7 8 9 11 12 12 13 11 10 9 6 4 6 7 7 10 11 12 14 13 11 10 10 8 8 9 10 9 6 7 9 9 10 11 9 7 6 5 5 5 5 5 5 5 4 4 2 1 3 5 4 4 3 4 6
15 14 13 13 11 10 9 8 6 6 6 6 6 6 6 7 6 7 7 8 9 9 10 11 13 14 12 11 10 9 8 8 10 10 10 11 12 11 10 9 7 6 6 6 8 10 11 13 14 15 13 10 9 8 8 8 9 10 7 7 10 11 10 11 10 8 7 6 5 5 4 4 4 4 4 4 2 1 2 5 4 4 3 2 5
14 14 14 14 13 12 11 10 8 7 6 5 5 5 6 6 6 7 8 8 8 8 9 9 11 13 12 10 9 9 9 9 10 10 9 11 11 10 10 9 7 8 7 6 8 10 11 13 14 15 14 12 9 8 8 7 9 11 9 7 9 11 11 11 10 8 7 6 5 5 4 4 3 4 5 4 2 1 1 3 5 4 3 2 3
15 15 15 14 14 13 12 11 9 8 6 5 5 5 5 6 7 7 9 9 9 8 8 8 9 11 12 11 11 11 10 10 12 11 8 10 10 10 9 8 7 8 7 5 7 10 11 13 14 14 14 13 10 8 7 6 8 11 11 8 8 10 11 11 10 9 7 6 6 5 4 3 3 3 4 3 1 2 1 1 4 4 4 3 2
17 16 16 15 14 13 12 11 10 8 7 6 5 5 5 6 7 9 10 9 9 8 7 8 9 10 10 11 13 14 13 13 14 12 10 12 12 11 9 9 9 8 7 5 6 8 10 11 12 12 11 11 10 8 6 5 6 9 12 10 8 9 11 10 10 9 8 7 6 5 4 3 3 3 3 3 2 2 2 1 2 3 3 2 3
18 18 17 16 15 14 13 12 10 9 7 6 5 5 6 7 9 10 10 9 9 9 7 8 11 12 12 11 13 15 15 15 14 13 12 14 16 15 13 13 11 9 8 5 5 7 8 10 11 10 9 9 9 7 6 4 4 6 11 12 11 9 9 9 9 9 8 8 7 5 5 4 3 3 3 2 2 3 3 2 2 2 1 1 2
20 19 18 16 15 14 14 12 11 10 8 7 6 6 6 8 9 10 10 10 10 10 9 9 11 12 12 12 13 14 15 16 16 15 14 15 17 18 17 16 14 12 10 7 6 6 7 10 10 9 9 8 7 6 4 3 3 4 7 11 12 11 9 9 8 9 9 8 8 7 6 5 5 4 4 3 3 4 5 4 3 4 3 2 2
21 20 19 17 16 15 14 13 12 10 9 8 7 6 6 7 8 9 9 10 11 12 11 9 9 9 10 11 12 14 14 16 17 14 14 16 17 21 20 19 17 15 13 10 10 9 9 9 9 9 8 7 5 3 3 4 4 4 6 9 12 12 11 10 9 9 10 9 9 8 7 7 7 6 5 4 4 5 6 6 5 5 4 3 2
23 23 20 18 18 17 16 14 12 11 9 8 7 6 6 6 7 8 8 8 9 12 12 9 7 8 10 11 12 14 12 14 15 10 10 13 17 22 22 21 19 17 15 13 12 12 11 11 10 9 7 5 4 4 5 6 6 6 6 9 11 13 12 11 10 10 11 11 10 10 9 9 9 8 7 6 5 6 6 6 7 6 5 4 3
25 23 22 21 20 18 17 15 13 12 10 9 7 6 6 6 6 7 7 6 7 9 10 10 10 10 11 11 10 11 11 11 11 8 9 13 16 20 22 23 22 19 17 16 15 14 13 13 11 10 9 7 7 7 8 8 7 7 7 9 11 13 13 12 12 11 12 12 11 11 11 11 11 10 10 9 8 8 7 7 7 7 6 4 3
27 25 25 24 21 19 17 16 15 13 11 10 9 8 6 5 5 5 4 4 4 5 5 6 8 7 7 6 7 9 9 9 8 6 9 15 18 20 21 23 22 21 19 18 17 16 15 14 12 11 10 10 9 9 10 10 9 8 7 9 11 13 13 13 12 11 11 12 12 12 12 13 13 13 12 11 10 10 9 8 8 8 7 5 5
29 28 27 24 22 20 18 17 16 14 12 11 9 8 7 7 7 6 4 2 2 2 1 2 3 2 2 1 3 6 5 5 7 6 7 13 17 20 22 22 21 22 21 20 19 17 16 15 14 13 12 10 9 8 9 10 10 10 9 10 13 14 15 15 13 12 12 13 13 13 13 13 14 14 14 13 12 12 11 10 9 9 10 8 6
30 29 27 25 22 21 19 18 17 15 13 11 9 8 8 8 8 7 5 3 3 3 4 4 3 2 2 3 5 6 6 5 6 6 6 9 13 18 21 20 21 23 23 21 20 19 17 15 14 13 11 10 9 9 9 10 11 11 11 12 14 17 18 17 16 14 13 14 14 14 14 14 14 15 15 15 14 13 13 13 12 11 12 11 9
31 29 28 25 23 21 20 18 17 16 13 11 9 8 7 7 7 7 5 4 3 3 4 4 2 4 4 5 5 5 6 6 6 5 4 7 10 12 13 16 20 23 23 22 22 21 17 15 16 15 12 10 10 11 11 11 11 11 12 13 15 18 20 19 18 17 16 15 15 15 15 15 15 15 16 16 16 15 15 14 14 13 14 13 12
30 29 27 25 23 21 20 18 17 16 14 12 10 8 7 6 6 6 5 3 3 3 3 3 3 4 5 6 6 6 6 6 5 4 4 5 7 8 9 10 13 17 21 21 21 21 20 19 18 17 15 14 14 13 11 10 10 10 11 13 15 18 21 21 21 19 19 18 17 17 16 15 15 16 16 16 16 16 16 16 15 15 15 15 14
30 28 26 24 22 21 21 19 18 17 15 13 11 10 9 8 7 7 5 3 3 3 3 3 3 3 4 6 6 6 6 5 5 5 5 4 4 6 7 7 8 10 9 9 10 12 17 21 19 17 16 15 14 12 10 9 9 10 10 12 14 17 21 23 23 23 22 21 20 19 18 18 17 16 16 16 16 17 17 17 17 17 17 16 15
29 28 26 24 23 23 23 21 19 18 17 15 14 13 12 10 9 7 5 4 5 4 3 1 2 3 4 5 5 5 4 3 3 4 4 5 4 4 2 3 5 5 5 6 6 5 7 13 17 18 14 12 12 12 10 9 10 11 12 13 13 14 19 22 24 25 25 24 23 23 22 21 19 18 17 17 16 17 17 17 18 18 18 18 17
26 28 27 26 25 25 24 23 21 19 18 17 16 15 13 12 10 8 6 6 6 5 3 2 0 2 3 4 4 4 3 2 2 3 4 5 6 5 3 3 3 3 4 3 4 4 3 6 11 14 10 10 11 11 10 8 8 10 10 12 14 14 15 19 22 24 25 25 25 24 24 23 22 20 19 18 17 17 17 17 18 19 19 19 19
28 29 28 27 27 26 25 24 23 21 19 17 17 16 14 12 11 9 8 7 6 5 3 2 1 2 3 4 4 4 4 3 2 2 3 4 6 6 5 5 5 4 3 4 3 2 2 2 5 7 7 8 11 11 10 7 4 4 3 7 11 13 14 16 19 22 23 24 25 25 25 25 24 22 21 20 19 18 17 17 18 18 19 20 20
28 30 28 28 28 27 27 25 24 23 20 18 17 16 15 13 10 9 9 8 7 6 4 3 4 4 4 5 5 6 6 5 4 3 3 4 5 6 7 8 8 8 7 7 5 3 2 1 1 1 2 5 7 8 9 8 5 2 1 2 3 5 8 10 13 18 21 23 24 25 26 26 25 24 23 23 22 20 19 19 19 19 19 20 21
26 29 29 30 30 29 28 27 25 23 21 19 18 17 17 14 11 10 9 8 8 7 5 4 4 4 4 5 6 7 7 6 5 5 5 5 5 6 6 7 9 9 9 10 10 9 5 1 2 3 3 4 3 2 3 5 7 4 2 1 1 1 3 5 11 16 16 18 22 24 25 26 25 24 24 24 23 22 21 21 21 21 20 21 21
27 31 32 32 32 30 29 28 26 24 22 21 20 20 18 15 13 12 10 8 9 8 6 4 3 3 3 3 5 6 6 5 6 6 6 6 6 6 6 6 8 9 9 11 12 12 9 6 5 6 6 6 5 4 3 2 6 7 5 2 1 1 1 2 8 11 11 12 14 17 20 22 23 23 23 23 23 22 21 22 23 23 23 23 23
30 33 33 32 31 30 29 28 27 25 24 23 23 21 19 17 15 14 13 11 11 10 7 5 4 3 2 2 4 5 4 4 5 5 6 6 6 7 6 6 6 8 8 9 10 11 10 9 8 7 7 6 6 6 6 4 4 4 4 4 3 3 2 3 3 3 9 11 7 6 9 11 13 15 17 19 19 20 19 20 22 23 24 25 24
31 32 31 31 31 30 30 29 28 27 25 25 24 21 20 18 17 17 16 14 13 11 8 5 4 3 3 2 3 5 4 3 5 6 6 6 7 7 7 7 7 8 7 7 9 10 10 10 9 8 8 7 6 7 7 6 6 5 3 1 2 2 3 4 3 2 6 7 7 10 10 8 8 9 10 12 13 15 15 17 20 22 24 25 24
30 30 32 32 33 31 31 30 29 28 28 27 25 23 21 20 19 19 18 16 13 10 9 7 6 5 3 3 1 4 5 4 5 6 7 6 6 6 6 7 8 9 8 9 10 10 10 10 9 8 9 9 9 8 8 8 8 7 5 4 3 3 1 6 8 6 4 3 7 12 11 11 11 10 10 10 10 11 12 13 16 18 20 22 22
28 31 33 34 33 32 32 31 30 29 30 29 27 24 22 21 21 21 21 18 14 11 10 8 7 6 5 4 3 3 4 4 4 4 5 6 7 7 7 8 11 12 11 12 11 11 11 10 10 10 9 10 11 9 9 9 9 8 7 6 6 4 1 3 6 6 5 4 4 4 9 14 13 11 11 11 11 11 13 14 15 16 16 16 17
26 29 30 32 32 32 32 32 31 30 31 30 28 26 24 23 23 23 24 22 18 15 13 11 9 8 7 6 6 5 4 4 3 3 5 6 8 9 9 10 11 12 12 13 13 13 13 13 12 11 10 10 10 10 10 10 9 8 8 7 7 6 4 2 3 5 4 5 4 3 7 9 9 12 15 15 16 17 16 17 17 18 18 17 16
23 25 28 31 31 32 33 33 33 32 31 31 30 28 26 25 25 25 26 25 21 18 16 14 12 11 10 9 8 7 5 4 3 3 4 5 7 8 9 9 10 11 13 14 14 14 15 15 14 13 12 11 11 9 9 9 8 8 8 9 9 8 6 4 4 5 4 4 5 4 6 8 9 13 16 16 18 19 18 18 17 18 18 19 19
Wind_Direction
175 168 167 162 158 155 149 144 142 143 143 141 136 134 132 129 127 126 124 122 120 121 125 128 129 131 134 135 136 134 132 130 126 125 124 123 122 121 120 119 119 119 121 123 126 128 128 128 126 126 126 125 127 128 125 122 121 120 120 123 124 122 123 121 120 120 117 115 116 116 114 114 113 110 106 104 103 100 100 101 100 96 90 87 85
168 165 167 162 161 157 151 146 143 144 144 143 139 136 134 131 129 128 126 122 120 121 124 128 128 130 133 134 133 129 127 126 125 124 123 123 121 119 118 117 118 119 121 125 129 128 128 128 128 127 126 127 128 128 126 125 123 123 123 123 125 124 124 123 122 120 120 123 122 118 117 117 113 110 107 104 101 98 99 98 97 96 91 89 86
160 163 165 162 164 158 153 148 145 145 145 144 141 138 134 132 131 130 128 124 122 122 125 128 129 129 132 132 130 127 125 124 124 123 123 122 121 119 119 118 119 118 118 123 128 127 127 128 129 130 130 130 129 129 128 128 125 125 126 125 130 131 127 125 123 123 126 126 120 118 118 116 113 111 109 105 102 100 99 97 96 96 94 93 90
160 163 161 162 164 160 155 151 148 145 145 145 143 140 136 134 132 132 130 126 125 125 127 129 131 131 131 132 131 129 127 126 124 123 124 123 121 119 119 120 120 118 115 120 126 126 126 128 130 131 132 132 132 131 130 131 130 128 129 128 133 135 131 130 128 126 127 124 122 122 119 117 117 113 110 107 104 102 101 98 95 93 91 93 91
162 162 161 161 162 162 158 155 151 147 146 146 145 142 139 137 135 135 134 129 127 127 130 131 134 135 134 134 133 132 131 131 129 128 129 126 122 119 119 121 122 120 116 120 124 124 126 128 132 132 132 133 132 133 132 132 130 131 133 132 136 140 137 137 137 133 130 128 126 121 121 122 118 112 112 110 106 104 102 98 94 93 89 87 86
162 162 162 161 161 162 159 158 155 149 147 148 147 145 142 141 137 137 137 132 127 127 130 133 136 137 137 136 135 133 132 134 133 133 133 130 126 122 121 122 123 121 118 121 123 124 126 129 133 133 132 133 133 134 134 131 132 134 132 131 139 143 142 142 143 140 134 128 126 126 127 124 117 114 113 111 107 105 101 98 96 95 92 88 85
162 160 162 162 162 161 160 159 157 153 150 150 150 148 146 145 142 138 139 136 130 129 131 135 137 138 138 138 138 136 137 139 137 136 136 132 129 127 125 123 123 122 120 121 122 123 125 129 132 131 131 132 133 134 134 132 132 132 130 134 142 145 145 147 148 145 134 128 130 129 123 118 115 114 112 111 107 104 102 99 98 95 91 89 89
160 157 158 160 161 161 160 158 161 159 153 153 153 152 151 150 147 142 140 139 136 134 135 138 138 138 138 139 142 142 143 142 141 141 139 136 134 132 127 124 123 124 124 121 123 125 127 129 130 131 131 132 134 134 132 130 130 132 136 141 146 148 150 152 152 149 139 132 129 121 117 116 115 113 113 113 107 104 103 100 99 95 91 90 90
157 157 158 157 154 155 155 159 166 164 158 155 155 157 156 154 152 148 144 142 141 139 138 140 140 140 140 142 143 145 145 143 145 146 143 141 140 134 129 125 119 122 127 125 125 127 130 131 132 132 132 134 135 133 130 130 133 135 138 141 145 148 151 154 154 150 141 132 125 122 123 120 114 112 114 114 111 108 109 110 104 99 94 92 89
151 154 157 153 146 149 154 161 167 166 165 160 157 159 160 158 156 155 150 145 145 144 142 142 143 143 144 144 140 142 142 140 144 146 147 145 142 137 132 126 116 121 128 128 127 129 133 133 135 134 133 137 137 135 134 134 135 133 131 134 140 147 151 155 154 148 140 133 127 126 123 119 116 115 118 116 113 110 110 111 103 97 95 92 90
144 147 148 147 143 149 153 158 162 164 168 165 162 160 162 162 160 161 156 150 147 147 145 143 145 146 147 144 137 138 137 137 140 145 148 146 143 141 136 126 118 122 129 130 128 129 134 137 139 138 138 141 141 139 137 134 132 129 127 129 132 141 151 153 150 143 137 133 130 128 128 130 127 121 120 116 111 109 109 106 101 100 97 94 91
141 143 143 143 139 148 153 155 158 161 168 169 167 163 163 164 163 163 159 156 151 150 149 145 146 146 148 144 137 135 135 137 137 142 144 144 145 141 135 128 121 124 132 134 132 133 138 144 146 145 144 143 142 141 138 136 133 131 135 140 135 135 147 151 146 141 139 137 134 133 135 135 126 118 118 116 112 111 109 106 102 99 96 93 92
139 141 141 140 136 149 156 155 158 158 164 168 169 166 164 166 167 166 162 160 156 154 152 151 151 148 147 143 137 137 141 141 134 136 138 142 146 140 134 130 125 125 132 138 140 141 144 148 149 146 145 145 146 148 148 146 145 148 153 159 154 143 144 150 146 143 144 142 140 135 131 123 118 124 126 120 115 112 108 106 103 98 95 93 93
140 138 134 136 135 149 158 157 157 154 157 162 168 169 166 166 169 171 168 165 163 160 157 158 157 151 150 144 140 143 145 141 133 136 137 142 148 144 139 134 130 127 132 141 146 148 150 152 153 153 152 151 154 160 162 157 158 165 166 158 162 158 146 145 143 141 142 141 141 133 122 118 120 126 122 116 114 113 109 104 103 99 96 93 92
143 135 132 136 136 143 156 156 154 153 155 158 165 171 171 170 168 172 175 173 169 168 165 164 161 156 154 147 146 150 149 143 137 140 143 148 150 145 143 138 134 131 133 143 150 153 157 158 161 164 163 161 162 168 167 164 167 165 161 149 160 164 149 140 137 136 138 138 140 132 124 124 122 123 118 119 120 119 113 105 103 99 97 94 93
144 137 139 144 142 138 144 148 148 148 150 155 161 165 169 172 170 170 177 177 174 177 175 167 163 162 158 148 149 155 151 146 142 143 148 157 155 142 141 140 136 136 135 140 152 160 164 166 168 171 173 171 167 169 172 174 173 157 152 144 161 169 158 139 130 128 132 134 137 134 135 132 124 126 125 125 125 121 115 109 106 103 100 97 97
144 143 146 148 149 144 142 140 137 136 137 145 152 156 159 166 171 171 174 177 177 180 177 169 168 169 164 157 158 160 156 149 143 142 149 160 158 143 140 141 137 138 139 140 154 167 175 173 170 174 178 180 177 176 181 181 175 163 155 149 166 178 175 158 130 123 126 127 131 134 140 140 131 129 128 128 127 119 115 111 105 104 102 98 99
146 149 151 150 152 151 146 138 135 134 134 140 143 149 154 161 170 173 174 178 181 180 175 172 174 173 172 173 168 163 161 153 148 148 149 155 158 150 149 147 141 141 143 146 157 169 183 182 173 174 178 182 184 184 185 178 174 167 159 166 171 184 190 183 156 130 125 121 122 129 138 142 140 138 142 142 132 122 118 114 108 106 106 102 100
149 155 157 158 157 150 142 135 138 137 136 136 134 141 148 158 166 170 173 178 183 180 175 172 171 173 177 179 171 165 168 162 158 157 148 150 158 161 164 160 150 146 148 159 166 171 183 191 182 177 177 176 180 185 187 179 172 167 161 175 182 189 199 196 185 152 132 121 116 122 132 143 148 151 158 151 139 139 135 127 123 113 107 107 107
152 160 161 162 157 146 139 133 133 135 138 133 131 136 139 147 156 164 170 176 181 178 174 167 162 169 176 181 173 168 179 174 169 171 161 161 166 171 174 169 159 154 156 168 179 176 180 192 191 185 182 175 173 180 187 182 173 171 165 169 185 195 199 199 195 176 147 128 117 119 128 143 151 155 158 147 153 167 156 146 141 129 119 114 114
158 167 163 158 153 146 140 134 132 135 141 140 140 138 136 143 150 161 169 172 177 179 174 163 165 174 173 182 180 174 189 184 179 190 185 173 172 180 184 176 166 167 165 167 182 183 180 188 194 190 187 181 174 175 182 184 179 176 167 164 183 196 192 192 193 187 166 141 126 121 125 139 146 151 154 154 172 190 170 158 151 148 147 127 120
165 170 165 155 151 150 142 135 136 139 145 149 154 150 147 152 155 163 169 169 173 177 173 168 177 175 166 178 182 184 204 193 187 199 199 187 180 183 190 184 175 177 171 164 178 188 184 187 194 197 192 188 185 182 180 183 187 184 170 167 179 193 185 179 184 186 178 153 135 126 125 131 135 146 157 165 188 198 174 165 156 160 168 142 129
169 171 166 159 155 155 148 142 142 148 152 153 160 158 159 162 163 170 172 171 171 171 173 178 183 176 169 179 187 196 217 212 203 208 205 196 186 183 189 186 181 181 169 164 179 191 191 188 191 201 201 193 192 194 186 183 189 189 178 171 176 190 180 170 176 184 183 162 141 131 125 127 134 151 165 170 191 210 182 178 169 159 165 153 139
175 173 168 162 160 158 151 150 149 157 163 165 167 164 166 170 172 177 179 178 178 177 179 185 185 181 178 182 192 203 223 237 229 222 220 207 190 183 186 183 181 177 169 170 183 194 199 193 191 199 206 201 194 195 193 185 186 189 188 176 175 182 175 172 176 180 183 169 148 135 129 128 135 154 166 166 191 256 179 178 179 170 176 160 147
180 176 170 163 160 157 152 152 151 155 168 178 175 176 179 178 179 181 184 188 192 193 192 194 191 186 182 184 199 210 226 247 250 243 237 217 196 187 185 180 173 172 182 187 190 200 208 203 195 195 201 206 200 194 196 190 182 184 188 181 176 177 175 177 182 183 182 168 152 143 136 133 137 150 161 172 215 315 165 181 192 193 210 183 155
183 177 169 162 160 158 153 151 149 152 164 178 183 196 196 188 191 189 189 194 199 200 198 201 196 190 187 194 203 210 224 242 255 256 237 211 197 188 184 179 174 180 196 202 198 207 215 211 200 193 196 204 207 202 201 198 187 184 187 187 181 180 178 179 183 183 178 167 156 151 143 141 142 148 162 179 226 296 180 198 202 203 241 248 163
179 175 169 165 165 162 159 155 151 153 159 174 193 214 210 201 203 202 201 198 199 199 197 200 192 188 192 202 208 211 224 236 247 253 236 212 195 183 183 181 185 194 202 210 208 210 217 215 203 196 196 202 210 209 204 199 192 189 190 193 188 184 183 181 181 180 178 171 166 163 157 153 156 156 170 186 212 236 277 280 207 214 257 247 178
175 175 175 174 172 168 168 164 159 161 164 175 196 219 224 216 211 213 210 201 200 198 197 197 190 195 203 208 211 214 225 234 241 245 232 215 197 182 185 191 197 202 203 212 211 206 212 212 205 203 200 201 202 196 196 194 192 193 193 197 195 186 185 184 181 180 180 180 177 173 168 164 166 166 174 191 205 212 229 279 224 234 274 229 196
178 178 180 179 176 175 176 174 173 173 177 187 202 222 231 225 219 219 216 206 199 194 195 201 199 203 210 212 213 219 230 238 243 242 231 217 199 187 189 194 200 203 200 206 204 196 202 204 205 204 194 187 185 180 184 187 194 201 201 203 200 188 186 191 190 187 185 186 187 183 182 179 174 176 177 193 205 202 206 218 220 222 273 286 236
182 180 182 182 181 185 185 185 185 185 190 197 207 225 233 229 226 228 227 217 203 192 192 207 210 207 209 212 218 227 237 245 246 236 231 224 202 190 193 195 197 202 201 195 186 182 191 199 199 191 179 172 170 175 189 207 229 226 216 212 206 200 196 200 203 199 193 190 192 193 195 196 192 194 195 205 211 201 204 209 210 209 225 287 270
185 184 185 185 186 189 189 191 193 194 197 200 208 221 228 226 226 235 240 227 208 198 194 207 212 205 213 219 226 239 246 252 253 238 229 228 205 192 197 197 196 201 203 195 183 179 183 188 185 178 176 176 179 205 242 262 272 266 239 224 217 215 212 211 216 212 205 199 198 203 207 209 209 208 210 219 224 211 206 206 211 212 215 234 241
187 187 186 187 190 191 190 193 196 196 193 193 198 204 216 222 227 240 247 238 220 206 199 206 210 206 224 231 234 248 256 256 261 256 236 232 210 196 197 200 199 200 202 199 191 187 186 187 186 188 195 206 229 256 274 279 280 278 252 233 228 228 225 221 224 222 216 212 207 211 217 220 219 219 220 225 231 227 217 212 218 222 221 233 244
187 188 188 190 192 192 189 191 191 188 180 176 177 178 195 205 215 232 241 240 230 219 208 210 221 226 234 241 249 260 263 260 266 262 234 227 214 201 199 202 203 202 202 202 199 195 195 198 202 210 221 233 253 269 280 283 284 284 264 243 233 229 230 229 232 232 226 222 219 220 225 229 229 227 228 229 235 236 231 227 225 228 232 234 241
183 185 188 189 189 187 185 183 178 173 165 160 160 159 161 161 172 191 217 226 216 229 227 205 216 230 236 241 258 261 263 265 269 263 228 220 214 207 203 205 206 206 204 202 203 202 201 207 214 223 232 240 255 269 279 282 285 284 272 254 237 229 231 232 237 241 237 231 228 230 231 236 239 237 236 235 236 239 239 239 233 232 238 235 240
181 182 185 184 183 184 182 174 167 163 158 156 156 152 147 139 141 146 160 180 177 218 216 136 167 191 246 283 303 284 294 290 275 272 242 228 222 214 210 210 210 210 210 206 206 207 206 211 220 226 234 242 256 271 282 287 283 276 270 259 244 235 233 233 237 242 242 241 239 240 240 242 246 246 245 243 241 242 241 242 240 238 242 244 246
182 181 181 181 183 184 180 170 163 160 156 156 157 153 148 143 144 141 138 129 91 94 116 122 122 89 38 3 350 324 337 338 297 277 245 239 238 225 216 214 215 215 214 212 210 211 211 215 223 230 237 246 260 271 279 285 282 272 269 267 254 243 240 236 236 239 242 246 249 251 251 249 251 252 252 251 249 248 246 244 242 240 244 252 254
183 182 180 182 184 183 179 172 164 161 157 158 160 158 153 149 158 156 143 121 88 86 107 110 82 70 59 33 14 350 346 347 322 297 261 250 249 241 227 218 221 221 217 218 220 217 213 219 229 234 239 246 258 268 277 281 279 272 267 270 265 252 246 242 239 241 244 247 251 254 256 256 257 257 256 256 254 253 252 249 246 243 244 251 257
183 183 182 183 185 183 180 175 167 163 160 160 162 161 157 153 157 160 154 130 112 112 97 76 60 55 53 45 36 23 11 7 358 339 316 273 261 263 245 223 228 228 220 223 231 230 225 227 231 233 237 247 255 263 277 281 279 275 269 273 269 254 248 247 245 247 248 248 251 254 256 259 261 262 261 260 259 256 255 253 251 247 245 249 254
182 181 181 183 184 183 180 175 170 167 163 162 162 156 150 150 151 154 157 140 133 136 106 72 59 45 41 44 40 34 25 21 20 9 359 335 306 286 252 223 226 236 238 247 260 253 236 230 234 237 238 244 249 256 272 287 289 281 277 283 278 259 252 252 253 253 253 253 254 256 257 259 260 263 264 264 264 262 260 258 255 252 250 250 253
181 179 181 183 183 182 180 175 172 170 166 164 162 154 149 150 152 157 162 144 139 141 130 106 53 43 46 53 56 51 40 22 15 7 7 7 0 341 284 242 246 273 327 330 311 301 250 235 236 237 236 233 243 263 276 289 292 282 281 288 288 274 260 258 258 257 255 255 256 257 258 259 260 261 263 265 266 266 265 263 260 258 256 253 254
179 179 182 184 184 183 180 176 173 173 172 169 166 162 160 159 160 169 170 149 144 149 153 166 337 31 55 61 64 61 64 44 12 352 355 12 23 25 13 342 328 328 0 16 340 320 287 250 230 224 224 225 243 265 272 281 288 280 286 295 295 291 276 264 262 260 257 256 256 258 258 259 260 261 261 262 264 266 267 267 265 263 261 258 256
179 181 185 185 185 185 184 180 175 176 177 176 174 172 175 173 171 173 167 152 152 158 158 135 47 57 76 63 51 47 46 39 34 7 1 29 47 52 48 32 33 39 62 68 24 321 263 246 223 216 218 231 247 258 260 263 270 263 303 322 306 301 292 273 264 260 258 258 257 258 259 260 261 262 262 262 261 263 265 267 268 266 264 262 259
181 183 186 186 186 185 185 183 178 177 178 181 180 175 178 180 175 169 160 153 154 154 141 102 71 73 72 51 39 27 16 18 42 60 60 70 74 70 64 58 60 66 78 84 75 75 90 90 87 150 208 221 240 254 259 251 229 191 75 342 317 317 308 297 284 270 261 259 260 260 261 261 262 263 263 264 264 263 263 264 267 268 268 266 264
184 184 186 188 188 186 185 184 181 179 179 180 178 175 178 181 176 166 160 153 149 150 141 109 82 78 64 40 22 11 13 30 50 60 69 75 72 67 64 65 68 73 85 88 82 82 85 104 84 80 107 131 165 225 263 240 227 209 153 172 102 31 299 329 326 302 277 261 260 262 263 262 263 263 264 266 268 269 268 267 267 269 271 270 269
189 188 189 190 189 187 186 186 183 180 181 179 175 177 179 179 174 168 167 159 154 162 167 156 133 103 68 34 10 8 26 50 54 51 52 53 56 60 62 70 76 76 82 85 84 84 85 84 80 85 99 105 111 116 109 160 219 215 204 187 110 103 223 357 336 313 307 294 276 271 269 266 265 265 267 270 271 272 272 273 272 271 272 272 272
195 192 192 192 189 188 187 186 185 182 182 180 178 182 184 182 180 177 177 171 171 179 181 169 149 129 106 56 17 22 38 41 37 37 35 40 48 57 62 70 77 75 74 77 78 76 74 72 68 73 83 97 113 114 102 102 141 181 202 217 234 236 238 336 337 298 316 316 307 311 306 293 283 277 276 279 278 276 276 280 280 278 277 275 274
199 194 193 192 190 190 188 187 186 183 185 185 184 188 190 193 195 192 188 185 186 187 180 167 157 149 137 122 44 47 62 48 43 46 41 42 44 48 57 61 65 68 66 64 65 63 64 65 61 63 67 76 99 98 85 90 107 104 91 172 254 264 251 281 279 274 315 308 297 314 331 341 332 318 307 301 294 286 286 290 288 286 283 280 278
200 195 194 192 191 190 188 187 185 183 186 189 191 194 195 200 205 205 202 200 199 190 177 172 171 174 165 160 131 73 84 80 65 58 50 42 35 40 50 57 63 65 62 60 61 58 57 58 58 60 61 63 73 82 80 79 85 82 71 76 70 46 281 254 247 246 262 284 296 304 317 329 325 322 321 319 312 301 302 304 299 295 290 286 284
199 197 194 192 192 191 189 188 184 182 187 191 195 198 200 205 211 213 211 210 210 198 183 181 182 187 190 187 184 139 112 99 82 63 53 47 49 60 66 68 68 64 60 55 52 48 46 47 48 49 53 58 61 67 72 69 67 69 69 74 78 72 82 238 248 255 258 268 286 299 318 323 320 315 317 320 319 315 312 311 308 304 300 297 296
199 198 195 193 194 192 190 189 185 183 188 193 198 201 203 209 216 218 216 213 213 204 192 191 193 196 202 203 197 175 148 126 108 83 66 63 72 79 77 71 65 58 51 45 43 45 45 46 46 46 49 53 55 56 62 64 62 60 56 60 60 55 64 63 358 346 314 278 273 285 309 317 315 310 314 316 315 312 309 307 305 300 297 298 301
197 196 196 196 195 194 193 191 188 187 191 195 200 204 206 211 218 222 218 215 213 207 199 197 198 201 205 207 203 191 174 158 145 116 91 80 84 85 74 66 58 50 43 40 44 48 50 50 50 50 50 51 51 49 53 55 53 52 47 47 49 48 50 42 8 352 338 304 298 303 306 309 301 298 308 315 311 306 306 306 305 301 297 293 292
Height
782 784 786 787 789 789 791 792 794 796 798 799 799 801 801 802 803 803 804 804 805 806 806 807 808 809 810 810 811 811 812 813 813 813 813 814 815 815 815 815 816 816 817 817 818 818 819 820 820 821 821 822 822 822 822 822 822 823 823 824 825 826 826 826 825 825 825 825 825 827 828 829 830 830 831 831 831 832 832 833 833 834 834 835 835
781 784 786 787 789 789 791 792 795 796 798 799 800 801 802 803 804 805 805 806 806 807 808 808 809 810 811 812 812 813 814 814 815 815 815 815 816 817 817 817 817 817 817 818 818 818 819 820 821 821 822 823 823 824 823 823 823 824 824 825 826 827 827 827 826 826 826 826 826 827 828 829 830 830 831 831 832 832 833 833 834 834 835 835 835
781 785 786 788 789 790 791 793 795 796 798 799 801 802 803 804 805 806 806 807 807 808 809 809 810 811 812 813 814 814 815 816 816 816 817 817 817 817 818 818 818 818 818 819 819 819 820 821 822 822 823 824 824 824 824 824 824 825 825 826 827 828 828 828 827 827 827 827 827 827 828 829 830 831 831 832 833 833 834 834 835 835 835 836 836
782 784 786 788 789 791 791 793 795 796 798 799 801 802 803 804 805 807 807 808 809 809 810 811 811 812 814 814 815 816 816 816 817 817 818 818 818 818 818 819 819 819 819 820 819 820 820 821 822 823 823 824 825 825 825 825 825 826 826 827 828 828 829 829 828 828 828 828 828 828 829 830 831 832 832 832 833 834 835 835 836 836 836 836 836
783 784 786 788 790 791 792 793 795 796 798 800 801 802 804 805 806 807 808 809 809 811 811 812 812 813 814 815 816 816 817 817 817 818 819 819 819 819 820 820 821 821 821 821 821 821 821 822 823 823 824 824 825 826 826 826 826 826 827 827 829 829 829 829 829 829 829 829 829 829 830 830 831 832 833 833 834 835 836 837 837 837 837 837 837
783 785 787 788 790 791 792 794 795 796 798 800 801 802 804 805 807 808 809 810 810 812 812 813 814 814 815 816 817 817 818 818 819 819 820 820 820 820 821 822 822 822 822 822 822 822 822 823 823 824 825 825 826 826 826 826 826 827 827 828 829 830 830 830 830 830 830 830 831 831 831 831 832 833 834 834 835 836 837 838 838 839 839 839 838
784 786 787 789 790 792 793 794 795 797 798 800 801 803 804 806 807 808 810 810 811 812 813 814 815 815 816 817 817 818 818 819 820 820 821 821 821 821 822 822 823 823 824 823 823 823 824 824 824 825 825 826 826 827 827 827 827 828 828 829 830 831 831 832 831 831 831 831 832 832 833 833 833 834 834 835 835 836 838 838 839 840 840 840 840
785 787 788 790 791 792 793 795 796 797 798 800 801 803 804 806 807 809 810 811 812 813 814 815 816 816 817 817 818 818 818 819 820 820 821 822 822 822 822 823 823 824 824 824 825 825 825 825 825 826 826 826 827 828 828 828 828 829 829 829 831 831 832 832 832 832 832 832 833 834 834 835 835 835 836 836 836 837 838 839 840 841 841 841 841
786 787 789 790 791 793 794 795 797 797 799 800 801 803 804 806 808 809 810 811 812 813 814 815 816 817 817 818 818 819 819 820 820 821 821 822 822 822 822 823 823 824 824 825 825 826 826 826 827 827 827 827 828 829 829 829 829 829 830 830 831 832 833 833 834 833 833 833 834 835 836 836 836 837 837 837 837 838 839 840 841 841 841 842 842
785 788 790 791 792 793 794 796 797 798 799 800 802 803 805 806 808 809 810 811 812 813 814 815 816 817 818 818 819 819 819 820 821 821 822 822 822 822 823 823 824 825 825 826 826 827 827 828 828 828 828 829 829 829 830 830 830 830 831 831 832 833 834 834 835 834 834 835 835 836 837 837 837 838 838 838 838 838 839 840 841 842 842 843 843
786 788 790 792 793 794 795 797 798 799 800 800 802 803 805 806 808 809 810 812 812 814 814 816 817 817 819 819 820 820 820 821 821 822 822 823 823 823 823 823 825 826 826 827 827 828 829 829 829 829 829 829 830 830 830 831 831 831 832 832 833 833 834 835 835 835 835 836 836 836 837 838 838 839 839 839 839 839 840 841 842 842 843 844 844
787 788 790 792 793 794 796 798 799 800 800 801 802 804 805 807 808 809 811 812 813 814 815 816 817 818 820 821 822 822 821 822 822 822 822 823 823 823 823 824 825 827 827 827 828 829 830 830 830 830 830 830 831 831 832 832 832 832 832 833 833 834 835 836 836 836 836 836 837 837 838 839 839 840 840 840 840 840 841 841 842 842 843 844 845
787 789 791 792 794 795 796 798 800 800 801 801 803 804 805 807 808 809 811 812 813 815 816 817 818 819 821 822 823 823 823 823 823 823 823 823 823 823 823 824 826 827 828 828 829 829 830 831 831 831 831 831 832 833 833 833 833 833 833 834 834 835 835 836 837 837 837 837 837 838 838 839 840 840 841 841 841 842 842 842 843 843 844 845 846
787 790 791 793 795 796 797 799 800 801 802 802 803 804 806 807 808 809 811 812 813 815 816 817 818 820 821 823 824 824 825 825 825 824 824 823 823 823 823 824 826 828 829 829 830 830 831 831 833 833 832 832 833 834 834 834 834 834 834 834 834 835 836 837 837 838 838 838 838 839 839 840 840 841 841 841 842 843 843 843 843 844 845 846 846
788 790 792 794 795 797 799 800 801 802 802 802 803 804 806 807 808 810 811 812 814 815 816 817 819 821 822 823 824 825 826 826 826 826 826 825 825 825 824 824 826 828 829 830 831 831 831 832 833 834 834 833 833 834 835 835 835 835 835 835 835 836 837 837 838 838 838 839 839 839 840 840 841 842 842 842 843 843 844 844 844 845 846 846 847
789 791 793 794 796 798 799 801 802 802 803 803 804 805 806 807 809 810 811 812 813 815 816 819 821 822 823 824 825 826 826 827 827 827 827 827 827 826 825 825 826 828 829 831 832 832 832 833 833 834 835 834 834 834 835 836 836 836 835 835 836 836 837 838 838 838 839 839 840 840 840 841 842 842 843 843 843 843 844 844 845 846 846 847 848
790 792 793 795 797 798 800 802 802 803 803 804 804 805 807 808 809 810 811 812 813 814 816 819 821 822 823 823 824 825 826 827 827 828 829 829 829 828 827 826 826 828 829 831 832 833 833 833 834 835 835 835 835 835 835 836 836 837 836 836 837 837 838 838 838 839 839 840 840 840 841 842 842 843 843 844 844 844 845 845 846 846 847 848 848
791 792 794 796 797 799 801 802 803 803 804 805 805 806 807 808 809 810 811 812 813 814 816 818 820 822 822 823 824 825 826 826 827 828 829 830 830 829 829 828 827 828 830 831 832 834 834 834 834 835 836 835 835 835 835 836 837 837 837 837 837 838 838 839 839 839 840 840 840 841 841 842 842 843 844 844 844 845 845 846 846 846 847 848 849
791 793 795 797 798 800 801 802 803 804 805 805 806 807 808 808 809 810 811 812 813 814 816 818 820 821 822 822 824 825 826 826 828 829 829 830 830 829 829 828 828 828 829 831 832 833 834 834 834 835 836 836 836 835 836 836 837 837 838 838 838 838 839 839 839 840 840 840 841 841 842 843 843 843 844 844 844 845 845 846 846 847 847 848 849
792 794 796 798 799 801 802 803 804 805 805 806 807 807 808 809 810 811 811 813 814 815 816 818 820 821 822 823 825 826 826 827 828 828 829 829 829 829 829 828 828 828 829 830 832 833 834 835 834 835 836 836 836 836 836 837 837 838 838 838 838 838 839 839 840 840 840 841 841 842 843 843 844 844 844 845 845 845 845 845 846 847 847 848 849
793 795 797 798 800 801 802 803 804 805 806 806 807 808 809 810 810 811 811 813 814 815 817 818 819 820 822 823 825 826 826 827 828 828 829 829 829 829 829 828 828 829 829 829 831 832 834 835 834 835 836 837 837 836 836 837 838 838 838 838 839 839 839 840 840 841 841 841 842 842 843 844 845 845 846 846 846 846 846 846 846 846 847 848 849
794 795 797 799 800 801 802 804 805 806 807 807 808 809 810 810 810 811 812 813 814 815 816 818 819 820 822 823 824 826 826 827 827 828 828 828 828 829 830 829 829 829 829 829 830 832 833 834 834 834 835 836 837 836 837 837 838 838 838 839 839 839 839 840 841 841 842 842 842 843 843 844 845 846 847 847 847 847 846 846 846 846 847 847 849
794 795 797 798 800 801 802 804 805 806 807 808 808 809 810 810 811 811 812 813 814 815 816 818 819 820 822 823 824 825 826 827 827 828 827 827 828 829 830 830 830 830 829 829 830 831 833 834 834 834 835 836 836 837 837 837 838 838 838 839 839 839 840 841 841 842 842 842 843 843 843 844 845 846 847 847 847 847 847 847 847 847 847 847 848
794 795 797 799 800 801 802 804 805 806 807 808 808 809 810 810 811 811 812 814 814 816 817 818 819 821 822 823 824 825 826 827 827 826 826 827 828 830 830 830 830 830 830 829 830 831 832 833 833 833 833 835 836 836 837 838 838 838 839 839 839 840 840 841 842 842 843 843 843 843 844 844 845 846 847 847 848 848 848 848 848 848 848 848 849
795 796 797 799 800 801 803 804 805 806 807 808 808 809 810 810 811 812 812 813 815 816 817 818 820 821 823 824 825 825 825 826 826 826 826 827 828 830 831 830 829 829 829 829 830 831 832 833 832 832 833 834 835 836 837 837 838 838 839 840 840 840 841 841 842 843 843 843 844 844 844 845 845 846 847 847 848 848 848 849 849 849 848 848 849
796 797 798 799 800 801 802 804 805 806 806 807 808 809 810 810 811 812 812 813 814 816 817 818 820 821 823 824 825 824 824 824 824 824 825 826 828 830 830 830 829 829 829 829 830 831 832 832 832 831 832 833 834 836 837 837 838 838 839 840 840 840 841 841 842 842 843 844 844 844 845 845 846 846 847 847 847 848 848 849 849 849 849 849 849
797 797 798 799 800 801 802 804 804 805 806 807 808 808 809 810 811 812 812 813 815 816 817 818 820 821 822 823 824 824 824 823 822 823 824 826 827 829 829 829 828 828 829 829 830 831 832 832 832 831 831 832 834 835 837 838 838 839 839 840 840 841 841 841 842 842 843 844 844 845 845 845 846 846 847 847 848 848 848 849 849 849 849 849 850
797 798 798 799 800 801 802 803 804 805 806 807 808 808 809 810 810 811 812 814 815 817 818 818 819 820 821 822 823 824 823 822 822 822 824 824 825 826 827 828 828 828 828 829 830 831 832 833 832 831 831 832 833 835 837 838 838 839 839 840 841 841 841 841 842 842 843 843 844 845 845 845 846 846 847 847 848 848 848 849 849 849 849 850 850
796 797 798 799 800 801 802 803 804 805 806 807 808 808 809 810 810 811 812 814 815 817 818 818 818 818 819 820 821 822 822 822 822 822 822 823 823 824 825 826 827 827 827 828 830 831 832 833 833 832 831 832 833 835 837 838 839 839 839 839 840 841 841 841 842 842 842 843 844 844 845 845 846 846 846 847 847 848 849 849 849 850 850 850 850
796 797 798 799 800 801 802 803 804 805 806 807 808 808 809 809 810 810 812 814 815 817 817 818 818 817 818 819 820 820 821 821 821 822 823 823 823 823 824 825 825 825 826 827 830 832 833 834 833 833 832 833 834 835 837 838 839 839 839 839 840 841 841 841 841 842 842 842 843 844 845 845 846 846 846 847 847 848 849 849 850 850 850 850 851
796 797 798 799 800 801 802 803 804 805 806 807 808 808 809 809 810 810 811 813 815 816 816 817 818 818 818 818 818 818 820 820 820 822 823 824 823 824 824 824 824 824 825 827 829 832 834 835 834 833 833 833 834 835 836 837 838 839 839 839 840 840 840 840 841 841 842 842 842 843 844 845 845 846 846 847 848 848 849 850 850 850 851 851 851
794 795 797 798 799 800 801 802 804 805 806 807 808 808 809 809 810 810 811 812 814 815 815 816 817 818 818 818 818 819 820 821 821 821 823 824 823 823 823 823 823 824 825 826 829 832 834 835 835 834 833 833 834 835 836 836 837 838 839 839 839 839 840 840 840 841 841 841 842 843 844 845 845 846 846 847 848 848 849 850 851 851 851 851 852
793 794 796 797 797 799 801 802 803 805 806 807 807 808 809 809 810 810 810 812 813 813 814 816 817 817 817 818 818 819 820 821 820 820 821 821 820 820 821 822 823 824 824 826 828 830 833 835 835 834 833 833 833 834 835 835 836 837 838 839 839 839 839 839 840 840 840 841 842 842 843 844 845 845 846 847 847 848 849 850 851 852 852 852 852
791 793 794 796 797 799 801 802 804 805 806 807 807 808 809 809 810 810 811 812 813 813 814 816 817 817 817 817 818 819 820 820 820 819 818 818 818 818 819 821 823 824 824 825 827 829 831 833 834 833 833 832 833 833 834 834 835 836 837 838 838 839 839 839 839 839 840 840 841 842 842 843 844 845 845 846 847 848 849 850 851 852 852 852 853
790 791 793 795 797 799 800 802 804 805 806 807 808 808 809 810 810 811 812 812 813 813 814 816 817 817 817 817 817 818 818 818 818 817 818 818 818 818 819 821 823 824 825 825 826 828 830 832 832 833 833 832 832 833 833 833 834 835 836 837 838 838 838 838 839 839 839 840 840 841 841 842 843 844 845 846 847 847 848 849 851 852 852 853 853
789 791 793 795 797 798 800 801 803 805 806 807 808 809 810 811 811 812 813 813 814 814 815 816 817 818 818 817 817 817 817 817 817 817 818 819 819 819 820 821 823 824 825 826 827 827 829 831 832 832 832 832 832 832 833 833 833 834 835 836 837 837 838 838 838 838 838 839 839 840 841 841 842 843 844 845 846 847 848 849 850 851 852 852 853
789 790 792 795 797 798 800 801 803 805 806 807 808 809 810 811 812 813 813 814 814 814 815 816 817 818 818 818 817 817 816 816 816 816 817 818 818 819 820 820 822 824 826 827 827 827 828 830 830 831 831 831 831 832 832 833 833 833 834 835 836 836 837 837 837 837 838 838 838 839 839 840 841 842 843 844 845 846 847 848 849 850 851 852 852
789 791 793 795 797 799 800 801 803 804 806 807 808 809 810 811 812 813 813 814 815 815 816 816 817 817 818 818 818 817 817 816 816 816 816 817 817 818 819 820 822 826 828 828 828 827 828 828 828 829 829 830 830 831 832 832 832 832 833 834 834 835 836 836 837 837 837 837 837 838 838 839 839 840 841 843 844 845 846 846 847 849 850 850 851
789 791 793 796 797 799 800 801 802 804 805 807 808 809 810 811 812 812 813 814 815 816 816 817 817 818 819 819 819 819 818 818 818 817 817 817 817 818 819 820 822 826 828 828 827 826 826 827 828 829 829 829 829 830 831 832 832 832 832 833 833 834 834 835 835 836 836 836 836 836 837 837 838 839 840 841 842 843 844 845 846 847 848 849 850
789 791 793 795 797 798 800 800 801 803 805 806 808 809 810 811 812 813 813 814 815 816 817 817 818 819 819 820 821 821 821 821 820 820 820 819 819 820 820 821 823 825 826 826 826 824 824 825 827 828 828 828 829 830 831 831 831 831 831 832 833 833 833 833 834 834 834 835 835 835 836 836 836 837 838 839 840 841 842 843 844 845 846 847 848
789 791 792 794 795 797 798 799 800 802 804 805 807 809 810 811 812 813 813 814 815 816 817 818 818 819 820 821 821 822 822 822 822 822 821 821 821 821 821 822 823 825 826 825 824 823 823 825 827 828 828 827 828 830 830 830 830 830 831 831 832 832 832 832 832 832 833 833 833 834 834 834 835 835 836 837 838 839 840 841 843 844 845 846 847
787 789 791 793 795 796 797 798 799 801 803 805 807 809 810 811 812 813 814 815 816 816 817 818 818 819 819 820 821 821 822 822 822 822 822 822 822 822 822 822 823 824 825 824 823 823 823 824 825 826 826 827 828 829 830 830 830 830 831 832 832 832 831 831 831 831 831 831 832 832 832 832 833 833 834 835 836 837 838 839 841 842 843 844 845
787 788 790 792 794 795 796 798 798 800 803 805 808 809 810 812 812 813 814 815 816 817 817 818 818 818 819 819 820 820 821 821 822 822 823 823 823 824 823 823 824 824 824 823 823 823 824 824 824 824 824 826 827 828 829 830 830 831 832 833 834 834 832 831 830 830 830 829 830 830 830 830 831 831 832 833 834 835 836 837 838 839 840 841 842
787 788 790 791 792 794 795 797 799 800 803 805 808 809 810 812 813 814 814 815 816 817 817 818 818 818 818 819 819 819 819 820 821 822 823 824 824 824 824 824 824 824 824 824 824 824 824 825 825 824 825 826 827 828 828 829 831 831 832 833 835 836 836 834 832 830 829 828 828 828 828 828 828 830 830 830 831 832 834 835 836 837 838 839 839
785 786 788 789 791 792 794 796 798 800 803 805 808 809 810 812 813 814 815 815 816 817 817 817 818 818 819 819 819 819 819 820 821 821 822 823 824 825 825 825 825 825 825 825 825 825 825 825 825 825 825 826 827 828 828 829 830 831 831 832 833 835 835 835 834 831 829 828 828 827 827 827 827 828 828 829 829 830 831 832 833 835 835 836 837
782 784 786 788 791 792 793 796 798 800 803 806 808 809 810 811 812 813 814 815 816 816 817 817 818 818 819 819 819 819 819 820 820 821 822 823 824 824 825 825 825 825 825 825 826 826 825 825 825 825 826 826 827 827 828 829 829 829 830 830 831 832 833 834 836 834 830 828 827 827 827 827 827 827 827 827 828 828 829 830 831 832 832 833 834
780 783 786 789 791 791 793 795 797 800 803 805 807 809 810 811 812 813 813 814 815 816 817 817 818 819 819 820 820 820 820 820 821 821 822 822 823 824 824 825 825 825 825 825 826 826 826 826 826 826 826 827 827 827 828 828 828 829 830 830 830 830 831 833 835 835 833 830 827 826 827 827 827 826 826 826 826 826 827 828 828 829 830 830 831
778 782 785 787 789 790 792 794 796 799 802 804 807 808 809 811 812 813 814 814 815 816 817 817 818 819 820 820 821 821 821 821 821 822 822 823 823 824 825 825 825 825 825 825 826 826 827 827 827 828 828 828 828 828 829 829 829 829 829 830 830 830 831 833 834 834 835 832 828 826 826 826 826 826 826 826 825 825 825 826 826 826 827 828 829
778 781 783 786 788 790 792 793 795 798 800 803 805 807 809 810 811 813 814 814 815 817 817 818 818 819 820 821 821 822 822 822 822 823 823 823 824 824 825 826 826 826 826 826 827 827 827 827 827 828 828 829 829 829 830 830 830 830 830 830 831 831 832 833 833 833 833 832 830 827 826 825 824 824 825 825 825 825 824 824 824 825 825 826 826
778 780 784 786 788 789 791 793 794 796 799 801 804 806 808 809 810 811 812 814 815 816 817 818 818 819 820 821 822 823 823 823 823 823 824 824 824 825 826 826 827 827 827 827 827 827 827 828 828 829 829 830 830 830 831 831 831 831 831 831 831 832 832 833 833 833 832 831 830 828 827 826 824 822 823 823 823 823 823 823 823 823 823 824 824
777 781 784 785 787 789 790 792 793 795 797 800 802 804 806 807 809 810 811 813 814 815 816 817 818 819 819 820 822 823 823 824 824 824 825 825 825 826 826 827 827 827 828 828 828 828 828 829 829 829 830 830 831 831 832 832 832 832 831 831 832 832 833 833 833 833 832 831 829 828 827 826 825 822 821 821 821 820 820 820 820 821 821 821 822